Temperature
3 3 2 2 2 2 2 4 5 6 5 5 5 4 3 2 2 1 1 1 1 1 2 2 2 2 2 2 2 2 2 2 2 2 3 3 3 3 3 3 3 3 3 3
1 2 2 2 2 2 2 3 3 4 4 4 4 3 2 2 1 1 1 1 1 1 1 1 2 1 2 2 2 2 2 2 2 2 2 2 2 2 2 2 2 2 2 2
4 2 1 3 2 2 2 2 2 3 4 4 3 2 1 1 0 0 0 0 1 1 1 1 1 1 1 1 1 1 1 1 1 1 1 1 1 1 1 1 1 1 2 2
2 2 3 5 1 2 2 2 1 2 2 2 2 1 0 0 -0 -0 -0 0 0 0 1 1 0 1 1 1 1 1 1 1 1 1 1 1 1 1 1 1 1 1 1 1
1 3 4 4 1 0 1 1 1 1 1 1 0 0 1 -0 -1 -1 -1 -0 -0 0 0 0 0 0 0 0 0 0 0 0 0 0 0 0 0 0 0 0 0 1 1 0
1 3 4 5 1 -1 0 2 1 0 0 0 -0 1 2 -1 -1 -1 -1 -1 -0 -0 -0 -0 -0 -0 -0 -0 -1 -1 -1 -1 -1 -1 -0 -0 -0 -0 -0 -0 -0 -0 -0 -0
1 2 3 2 -1 -1 2 3 1 -0 -1 -1 -1 0 -1 -1 -1 -1 -1 -1 -1 -1 -1 -1 -1 -1 -1 -1 -1 -1 -1 -1 -1 -1 -1 -1 -1 -1 -1 -1 -1 -1 -1 -1
0 1 3 -0 -1 1 2 0 -0 -1 -1 -1 -1 -2 -2 -2 -2 -2 -2 -2 -2 -1 -1 -1 -1 -1 -1 -2 -2 -2 -1 -1 -1 -1 -1 -1 -1 -1 -1 -1 -1 -1 -1 -1
1 2 1 -1 -1 -0 -1 -1 -1 -1 -1 -1 -2 -2 -2 -2 -2 -2 -2 -2 -2 -2 -2 -2 -2 -2 -2 -2 -2 -2 -2 -2 -2 -2 -2 -2 -2 -2 -2 -2 -2 -2 -2 -2
-2 -0 -1 -1 -1 -1 -1 -1 -1 -1 -2 -2 -2 -2 -2 -2 -3 -3 -3 -2 -2 -2 -2 -2 -2 -2 -2 -3 -3 -3 -2 -2 -2 -3 -2 -2 -2 -2 -2 -2 -2 -2 -2 -2
-2 -1 -1 -1 -1 -1 -1 -1 -2 -2 -2 -2 -2 -2 -2 -3 -3 -3 -3 -3 -3 -3 -3 -3 -3 -3 -3 -3 -3 -3 -3 -3 -3 -3 -3 -3 -3 -3 -3 -3 -3 -3 -3 -3
1 0 -1 -0 -0 -1 -1 -2 -2 -2 -2 -2 -2 -3 -3 -3 -3 -3 -3 -3 -3 -3 -3 -3 -3 -3 -3 -3 -3 -3 -3 -3 -3 -3 -3 -3 -3 -3 -3 -3 -3 -3 -3 -3
-1 -1 -1 -1 -1 -1 -2 -2 -2 -2 -2 -3 -3 -3 -3 -3 -3 -3 -3 -4 -3 -3 -3 -3 -4 -3 -3 -3 -3 -3 -4 -4 -4 -4 -4 -4 -4 -3 -4 -4 -4 -4 -3 -3
-2 -2 -3 -2 -2 -2 -2 -2 -2 -3 -3 -3 -3 -3 -3 -4 -4 -4 -4 -4 -4 -4 -4 -4 -4 -4 -4 -4 -4 -4 -4 -4 -4 -4 -4 -4 -4 -4 -4 -4 -4 -4 -4 -4
-2 -2 -3 -2 -2 -2 -3 -3 -3 -3 -3 -3 -3 -4 -4 -4 -4 -4 -4 -4 -4 -4 -4 -4 -4 -4 -4 -4 -4 -4 -4 -4 -5 -5 -4 -4 -4 -4 -4 -4 -4 -4 -4 -4
-3 -3 -3 -3 -3 -3 -3 -3 -3 -4 -4 -4 -4 -4 -4 -4 -4 -4 -4 -4 -4 -4 -5 -5 -5 -5 -5 -5 -5 -5 -5 -5 -5 -5 -5 -5 -5 -5 -5 -5 -5 -5 -5 -4
-4 -4 -4 -4 -4 -4 -4 -4 -4 -4 -4 -4 -4 -4 -4 -4 -4 -4 -4 -5 -5 -5 -5 -5 -5 -5 -5 -5 -5 -5 -5 -5 -5 -5 -5 -5 -5 -5 -5 -5 -5 -5 -5 -5
-4 -4 -4 -4 -4 -4 -4 -4 -4 -5 -5 -5 -5 -5 -5 -5 -5 -5 -5 -5 -5 -5 -5 -5 -5 -5 -5 -5 -6 -6 -6 -6 -6 -6 -5 -5 -5 -5 -5 -5 -5 -5 -5 -5
-4 -4 -4 -4 -4 -4 -4 -4 -5 -5 -5 -5 -5 -5 -5 -5 -5 -5 -5 -5 -5 -5 -5 -5 -6 -6 -6 -6 -6 -6 -6 -6 -6 -6 -6 -6 -6 -6 -6 -6 -6 -6 -6 -6
-4 -4 -4 -4 -4 -5 -5 -5 -5 -5 -5 -6 -6 -6 -6 -6 -6 -6 -6 -6 -6 -6 -6 -6 -6 -6 -6 -6 -6 -6 -6 -6 -6 -6 -6 -6 -6 -6 -6 -6 -6 -6 -6 -6
-4 -4 -4 -4 -4 -5 -5 -5 -5 -6 -6 -6 -6 -6 -6 -6 -6 -6 -6 -6 -6 -6 -6 -6 -6 -6 -6 -6 -6 -6 -6 -6 -7 -7 -7 -7 -7 -6 -6 -6 -6 -6 -6 -6
-4 -4 -4 -5 -5 -5 -5 -6 -6 -6 -6 -6 -6 -7 -7 -7 -7 -7 -6 -6 -6 -7 -7 -7 -6 -6 -6 -7 -7 -7 -7 -7 -7 -7 -7 -7 -7 -7 -7 -7 -6 -6 -6 -6
-5 -5 -5 -5 -5 -6 -6 -6 -6 -6 -6 -7 -7 -7 -7 -7 -7 -7 -7 -7 -7 -7 -7 -7 -7 -7 -7 -7 -7 -7 -7 -7 -7 -7 -7 -7 -7 -7 -7 -7 -7 -7 -7 -7
-5 -5 -5 -6 -6 -6 -6 -6 -6 -7 -7 -7 -7 -7 -7 -7 -7 -7 -7 -7 -7 -7 -7 -7 -7 -7 -7 -7 -7 -7 -7 -7 -7 -7 -7 -7 -7 -7 -7 -7 -7 -7 -7 -7
-5 -5 -6 -6 -6 -6 -6 -7 -7 -7 -7 -7 -7 -7 -7 -8 -8 -7 -7 -7 -7 -7 -7 -7 -7 -7 -7 -7 -7 -7 -7 -7 -7 -7 -7 -7 -7 -7 -7 -7 -7 -7 -7 -7
-6 -6 -6 -6 -6 -7 -7 -7 -7 -7 -7 -7 -7 -7 -8 -8 -8 -8 -8 -8 -8 -8 -8 -8 -8 -8 -8 -8 -8 -8 -8 -8 -7 -7 -7 -7 -7 -7 -7 -7 -7 -7 -7 -7
-6 -6 -6 -6 -7 -7 -7 -7 -7 -8 -8 -8 -8 -8 -8 -8 -8 -8 -8 -8 -8 -8 -8 -8 -8 -8 -8 -8 -8 -8 -8 -8 -8 -7 -7 -7 -7 -7 -7 -7 -7 -7 -7 -7
Wind_Speed
8 8 6 7 8 8 10 10 9 11 13 14 13 12 11 10 9 8 7 6 5 5 4 3 3 3 2 2 1 1 1 1 1 1 1 1 1 1 1 2 2 2 3 4
6 6 6 8 10 10 11 11 13 15 15 13 12 10 9 8 8 8 7 6 6 5 4 3 3 3 2 2 2 1 1 1 1 1 1 1 1 1 1 1 1 1 2 3
5 5 5 8 8 9 7 8 8 11 11 10 10 10 10 9 8 8 7 6 5 4 3 3 3 2 2 2 1 1 1 2 2 1 1 1 1 1 1 1 1 1 2 2
4 3 6 3 1 4 8 9 10 10 11 10 10 10 9 8 8 8 7 5 5 4 3 3 2 1 1 1 1 1 1 2 2 1 1 1 1 1 1 1 1 1 1 1
2 5 8 5 2 3 5 7 7 10 12 10 9 8 7 5 6 6 6 5 4 3 3 2 2 1 1 1 1 1 1 2 2 2 1 1 1 1 1 1 1 0 1 1
3 5 6 2 1 1 2 5 3 5 8 7 5 6 6 5 6 5 5 5 4 3 2 2 2 1 1 1 1 1 2 2 2 1 1 1 1 1 1 1 1 0 0 1
6 7 7 2 1 2 3 4 2 4 5 4 4 6 6 7 6 5 5 5 3 2 2 2 1 1 1 1 2 2 2 2 2 1 1 1 1 0 0 0 0 0 0 1
5 6 7 3 5 5 4 4 3 4 4 5 6 6 6 6 5 5 5 5 3 2 2 2 2 1 1 2 2 2 2 1 2 2 1 1 0 0 0 0 1 0 0 1
7 7 3 5 6 5 4 5 5 5 5 5 6 6 6 5 5 5 4 4 3 2 2 2 2 1 1 2 2 1 1 1 2 2 2 1 1 0 0 1 1 1 1 1
7 10 9 9 9 8 7 8 7 7 6 5 6 6 6 5 5 4 4 3 3 2 2 2 3 2 2 2 1 0 0 1 1 1 1 1 1 1 1 1 1 1 1 1
8 9 8 8 10 10 8 8 7 6 6 6 5 5 5 4 4 4 3 3 2 2 2 3 3 3 2 2 1 1 1 1 1 1 1 1 1 1 1 2 2 2 2 2
8 6 6 6 6 7 8 8 7 6 6 5 4 5 4 4 3 3 3 3 2 2 3 3 3 3 2 2 1 1 1 1 1 1 1 1 1 1 1 1 2 2 2 2
8 5 6 8 7 7 7 7 6 6 5 4 4 3 3 3 3 3 3 3 3 3 3 3 3 3 2 2 1 1 1 2 1 1 1 1 1 1 1 1 1 1 1 1
8 6 7 7 7 6 6 5 4 4 4 4 3 2 2 3 3 3 3 3 3 3 3 3 3 3 3 2 1 1 2 2 2 2 2 1 1 1 1 1 1 1 1 1
8 8 8 6 5 4 4 3 3 3 3 3 2 2 2 2 3 3 3 3 2 2 3 2 3 3 3 2 1 2 2 2 2 2 2 2 1 1 1 1 1 0 1 1
5 5 5 5 5 5 4 4 4 4 4 3 3 3 3 3 3 3 3 2 1 2 3 3 3 3 2 2 2 2 2 3 3 2 2 1 1 1 1 1 1 1 1 0
4 4 5 6 6 5 4 4 4 4 4 4 4 3 2 2 2 3 3 2 2 3 3 3 3 3 2 2 2 2 2 2 3 2 2 1 1 1 1 1 1 1 1 1
6 6 6 6 6 5 5 4 4 4 4 3 3 2 2 2 3 3 3 2 2 2 2 2 2 2 2 2 2 2 2 2 2 2 1 1 1 1 1 1 1 1 1 0
4 5 5 5 4 4 4 3 3 2 2 2 2 3 3 3 3 3 2 2 2 2 2 2 3 2 2 2 2 2 2 2 2 1 1 1 1 1 1 1 1 1 1 1
3 2 3 3 2 2 2 2 1 1 1 1 1 1 2 2 2 2 2 2 2 2 2 3 3 2 2 2 2 2 2 2 1 1 1 1 1 1 1 1 1 1 1 1
2 2 2 2 2 2 1 1 1 1 1 1 2 2 2 2 2 2 2 3 2 2 3 3 2 2 2 1 2 1 1 1 1 1 1 1 1 1 1 1 1 1 1 1
2 2 2 2 1 1 1 1 1 1 1 1 1 1 1 2 2 2 3 3 3 3 3 2 2 2 2 2 1 1 1 1 1 1 1 1 1 1 1 1 1 1 1 1
2 2 2 2 2 1 1 1 1 1 2 2 2 2 2 2 2 2 3 2 2 3 3 2 3 3 2 1 1 1 1 1 1 1 1 1 1 1 1 1 1 1 1 1
2 2 1 1 1 1 1 1 1 1 1 2 2 2 2 2 2 3 3 3 4 4 3 3 3 3 2 1 1 1 1 1 1 1 1 1 1 1 1 1 1 1 1 1
2 2 2 2 2 2 2 1 1 1 1 1 2 2 2 2 3 3 3 3 4 3 2 3 3 2 1 1 1 1 1 1 1 1 1 1 1 1 1 1 1 1 1 1
2 2 2 2 2 2 1 2 1 1 1 2 2 2 2 2 2 2 2 2 3 3 2 2 2 2 1 1 1 1 1 1 1 1 1 1 1 1 1 1 1 1 1 1
1 1 1 1 2 2 2 2 2 2 2 2 2 2 2 2 2 2 2 2 2 2 2 2 1 1 1 1 1 1 1 1 1 1 1 1 1 1 1 1 1 1 1 1
Wind_Direction
268 277 269 266 263 228 221 234 247 268 274 284 298 304 306 305 307 310 311 312 311 309 310 320 333 332 332 335 340 332 308 313 326 324 326 339 312 274 253 226 217 213 212 213
274 269 273 275 269 248 241 246 253 267 276 283 295 301 302 303 305 304 303 304 305 305 309 321 329 330 337 342 340 343 337 346 346 348 356 357 349 318 280 246 220 201 202 199
273 302 290 268 253 232 237 236 239 252 269 293 300 303 302 304 302 299 300 300 301 301 309 314 314 320 326 327 345 10 356 355 352 348 352 341 338 298 267 259 223 203 194 189
285 300 257 270 129 231 242 252 241 257 278 289 293 302 300 302 304 303 302 304 308 312 314 314 315 327 331 339 21 24 1 359 356 346 327 324 328 296 283 289 242 206 191 198
247 270 274 274 227 214 235 267 247 255 273 286 304 300 293 307 310 303 305 311 314 316 318 328 337 345 3 23 40 28 3 354 344 334 332 326 308 299 302 276 262 239 222 212
225 254 264 291 96 282 234 265 256 256 268 284 306 297 307 328 315 312 316 322 325 332 330 337 348 6 41 35 26 353 341 338 331 319 293 280 283 298 285 253 237 236 248 247
232 248 265 275 150 177 228 297 310 257 263 263 266 279 305 312 313 322 324 327 334 344 339 337 350 17 27 11 348 333 339 344 335 317 289 278 283 310 275 229 196 190 267 286
212 234 258 156 153 207 267 323 285 274 267 267 278 295 302 306 312 323 329 330 333 336 340 350 9 44 360 327 332 341 348 342 331 325 321 309 321 327 273 179 197 201 227 319
212 234 293 192 223 261 292 280 279 279 277 275 279 286 296 303 307 314 320 325 332 332 342 349 356 25 340 324 334 344 350 336 333 331 327 322 290 266 261 235 225 224 228 256
254 263 267 258 260 267 268 270 275 277 278 271 273 279 286 293 300 306 314 324 332 337 339 335 340 338 324 328 322 297 313 313 320 317 321 331 308 266 246 242 238 235 237 247
254 270 282 262 256 262 267 270 274 275 272 267 271 278 279 285 290 295 304 313 319 314 311 316 328 321 321 325 319 297 297 299 301 298 310 321 316 293 273 265 259 247 241 242
248 249 243 271 282 273 263 262 262 268 278 273 263 269 277 282 288 289 295 302 305 302 301 308 316 314 320 311 284 279 300 301 290 291 302 302 307 343 7 288 298 292 291 280
260 278 270 277 283 275 266 267 266 262 267 270 274 271 273 283 287 289 288 292 290 290 291 297 305 306 313 308 287 273 281 292 291 283 278 282 279 277 320 12 37 44 35 4
257 269 272 269 274 281 277 278 274 273 279 274 274 277 276 282 291 288 285 285 289 293 297 300 304 306 313 311 300 289 289 289 284 273 266 261 261 258 252 251 298 357 25 57
257 254 261 276 282 283 283 277 267 271 280 283 275 271 270 273 279 285 291 292 293 296 300 303 299 303 313 305 287 283 279 277 280 272 264 257 250 247 248 245 242 277 350 28
278 270 267 272 274 276 275 267 261 266 268 265 262 262 261 265 278 287 287 277 269 281 291 291 288 297 304 295 288 286 277 277 283 272 260 251 238 227 225 216 213 217 235 297
266 273 271 274 274 275 268 262 262 266 264 257 258 262 258 259 278 287 290 280 264 268 275 275 284 297 295 287 281 275 270 277 281 279 257 242 235 229 220 207 207 220 242 277
253 262 262 264 263 265 269 269 263 257 257 259 257 247 246 249 263 281 293 294 290 292 283 280 289 295 290 288 279 271 267 272 272 268 258 243 230 221 214 203 198 209 224 223
264 266 267 268 267 261 262 264 261 257 259 244 233 243 257 260 261 273 284 275 266 280 292 298 299 299 294 292 289 272 270 268 266 266 256 221 223 212 206 205 205 210 204 194
270 273 277 284 286 268 259 260 250 247 250 226 222 247 269 276 274 275 278 270 265 278 288 290 288 283 281 273 277 270 262 256 252 251 241 229 223 214 208 207 206 204 192 187
267 273 281 292 308 302 274 249 224 224 228 216 221 240 265 285 283 277 276 288 304 310 296 288 284 277 274 268 264 259 249 248 245 236 229 225 218 211 209 204 202 199 193 200
266 269 275 287 297 306 304 265 223 211 219 239 254 256 264 282 289 289 276 273 293 303 302 282 279 278 272 259 251 244 237 234 238 230 225 223 219 215 212 202 198 200 207 218
257 258 260 266 269 284 302 267 220 212 227 242 249 252 261 271 274 277 289 292 294 292 296 283 285 285 272 254 248 235 227 232 234 229 230 231 228 223 215 209 208 208 221 230
243 247 256 276 269 225 249 263 256 249 248 257 254 253 257 269 279 274 278 284 292 290 285 283 287 288 274 250 239 232 231 236 235 233 242 245 238 233 228 222 220 226 232 239
231 234 226 213 225 244 248 237 230 238 254 271 277 271 260 259 263 278 283 278 283 290 289 284 287 289 276 264 254 247 242 241 239 230 232 238 241 239 237 235 233 233 238 244
230 234 238 246 254 250 236 225 237 251 261 276 287 287 285 281 271 267 271 276 279 287 287 284 283 276 272 267 264 262 257 251 250 243 233 232 236 236 237 235 242 240 242 244
227 243 247 257 256 242 232 230 238 247 250 254 271 280 288 287 274 270 274 278 281 286 285 288 284 272 269 267 267 267 258 248 240 236 235 236 234 233 232 231 237 239 240 240
Height
1503 1501 1501 1498 1495 1495 1495 1487 1483 1472 1471 1468 1468 1468 1467 1465 1463 1460 1457 1455 1453 1452 1451 1450 1450 1449 1449 1448 1449 1449 1450 1449 1450 1451 1452 1453 1453 1454 1455 1455 1455 1456 1457 1457
1503 1500 1499 1496 1492 1491 1490 1488 1483 1477 1472 1469 1469 1467 1465 1463 1461 1457 1455 1453 1452 1451 1450 1449 1448 1448 1447 1447 1447 1447 1448 1448 1448 1449 1449 1450 1450 1451 1452 1452 1452 1453 1453 1454
1492 1499 1497 1485 1482 1485 1484 1482 1480 1474 1468 1467 1466 1465 1463 1461 1459 1456 1454 1452 1450 1449 1448 1447 1447 1446 1445 1445 1445 1446 1446 1446 1446 1447 1447 1447 1448 1448 1449 1449 1449 1450 1450 1451
1497 1497 1485 1475 1481 1480 1479 1476 1476 1472 1469 1468 1467 1464 1461 1459 1457 1454 1452 1450 1449 1447 1447 1446 1445 1444 1444 1444 1444 1445 1445 1444 1445 1445 1445 1445 1446 1446 1446 1446 1447 1447 1447 1448
1499 1488 1476 1475 1479 1480 1479 1473 1471 1470 1468 1467 1465 1461 1457 1456 1455 1453 1451 1449 1447 1445 1445 1444 1443 1443 1443 1443 1443 1443 1443 1443 1443 1444 1443 1443 1444 1444 1444 1444 1444 1444 1445 1445
1499 1488 1473 1469 1478 1478 1479 1469 1467 1467 1465 1465 1464 1460 1456 1455 1453 1451 1449 1447 1445 1444 1443 1442 1442 1442 1441 1441 1441 1441 1441 1441 1442 1442 1442 1442 1442 1442 1442 1442 1442 1442 1442 1443
1495 1486 1473 1475 1477 1478 1473 1464 1465 1464 1464 1463 1463 1460 1458 1454 1452 1450 1447 1446 1444 1443 1442 1441 1441 1441 1440 1440 1440 1440 1440 1440 1440 1440 1440 1440 1440 1440 1440 1440 1440 1440 1440 1441
1491 1485 1474 1474 1476 1474 1467 1465 1464 1462 1461 1461 1459 1457 1454 1452 1450 1448 1446 1445 1443 1442 1441 1441 1440 1440 1439 1439 1439 1439 1439 1439 1439 1439 1439 1438 1438 1438 1438 1438 1438 1438 1438 1438
1481 1473 1470 1470 1469 1467 1466 1464 1462 1461 1459 1458 1456 1454 1452 1451 1449 1447 1446 1444 1443 1441 1440 1440 1439 1439 1438 1438 1438 1438 1437 1437 1437 1437 1437 1437 1437 1437 1437 1437 1437 1436 1436 1436
1478 1469 1467 1467 1465 1464 1463 1462 1460 1458 1457 1455 1453 1452 1450 1449 1447 1445 1444 1442 1441 1440 1439 1439 1438 1437 1437 1437 1437 1436 1436 1436 1435 1435 1435 1435 1435 1435 1435 1435 1435 1434 1434 1434
1473 1466 1464 1461 1460 1459 1459 1458 1456 1455 1454 1452 1451 1449 1448 1447 1445 1444 1443 1441 1440 1439 1438 1437 1436 1436 1436 1435 1435 1434 1434 1434 1434 1434 1433 1433 1433 1434 1434 1434 1434 1433 1433 1433
1461 1459 1460 1457 1456 1456 1455 1454 1453 1452 1450 1450 1449 1447 1446 1445 1444 1443 1441 1440 1439 1438 1437 1436 1435 1435 1434 1434 1434 1433 1432 1432 1432 1431 1431 1431 1431 1431 1432 1432 1432 1432 1431 1431
1458 1456 1456 1454 1453 1452 1451 1450 1450 1449 1448 1447 1446 1445 1444 1443 1442 1441 1440 1439 1437 1437 1436 1435 1434 1434 1433 1433 1432 1431 1430 1430 1430 1429 1429 1429 1429 1429 1429 1430 1430 1430 1430 1429
1454 1454 1452 1450 1450 1449 1448 1447 1446 1446 1445 1444 1443 1443 1442 1441 1440 1439 1438 1437 1436 1435 1434 1433 1433 1432 1432 1431 1430 1429 1429 1429 1428 1428 1428 1428 1428 1428 1428 1428 1428 1427 1428 1428
1450 1450 1448 1447 1446 1445 1445 1444 1443 1442 1442 1441 1441 1440 1439 1439 1438 1437 1436 1435 1434 1433 1433 1432 1431 1430 1430 1429 1428 1428 1428 1427 1427 1426 1426 1426 1426 1426 1426 1426 1426 1426 1426 1427
1446 1445 1444 1443 1442 1442 1441 1441 1440 1439 1439 1438 1438 1438 1437 1437 1436 1435 1434 1434 1432 1431 1431 1430 1429 1429 1428 1428 1427 1426 1426 1425 1425 1425 1424 1424 1424 1424 1424 1424 1425 1425 1425 1425
1443 1441 1440 1440 1439 1438 1438 1438 1438 1437 1436 1436 1435 1435 1434 1434 1433 1432 1432 1432 1431 1430 1429 1428 1428 1427 1427 1426 1425 1424 1424 1423 1423 1423 1422 1422 1422 1422 1422 1423 1423 1423 1423 1423
1440 1439 1439 1438 1436 1436 1435 1435 1435 1434 1434 1433 1433 1432 1432 1431 1430 1430 1430 1429 1428 1428 1427 1427 1426 1425 1425 1424 1424 1423 1422 1422 1421 1421 1421 1421 1421 1421 1421 1421 1421 1421 1422 1422
1437 1436 1436 1435 1434 1433 1433 1432 1432 1431 1431 1431 1430 1430 1429 1429 1428 1428 1427 1426 1426 1425 1425 1425 1424 1424 1423 1423 1422 1422 1421 1421 1420 1420 1420 1420 1420 1419 1419 1419 1420 1420 1420 1421
1434 1434 1433 1433 1432 1431 1431 1430 1429 1429 1429 1429 1428 1427 1427 1426 1426 1425 1425 1424 1424 1423 1423 1423 1422 1422 1421 1421 1421 1420 1420 1419 1419 1419 1418 1418 1418 1418 1418 1418 1418 1419 1419 1420
1432 1432 1431 1430 1430 1429 1429 1428 1428 1427 1427 1427 1426 1426 1425 1425 1424 1424 1423 1423 1423 1422 1421 1421 1420 1420 1420 1420 1419 1419 1418 1418 1418 1417 1417 1417 1417 1417 1417 1417 1417 1418 1418 1418
1430 1430 1429 1429 1428 1427 1427 1426 1426 1426 1426 1425 1425 1424 1424 1423 1423 1422 1422 1421 1421 1420 1419 1419 1419 1418 1418 1418 1417 1417 1417 1416 1416 1416 1416 1416 1416 1415 1415 1416 1416 1416 1417 1417
1428 1428 1427 1427 1426 1426 1425 1425 1424 1424 1424 1424 1423 1423 1422 1422 1421 1421 1420 1420 1419 1418 1417 1417 1417 1417 1416 1416 1415 1415 1415 1414 1414 1414 1414 1414 1414 1414 1414 1415 1415 1415 1415 1416
1425 1425 1425 1425 1424 1424 1423 1423 1423 1423 1422 1422 1421 1421 1421 1420 1419 1419 1418 1418 1417 1416 1416 1415 1415 1415 1414 1414 1413 1413 1413 1413 1412 1413 1413 1413 1413 1413 1413 1414 1414 1414 1414 1414
1423 1423 1422 1422 1422 1421 1421 1421 1421 1421 1420 1420 1420 1419 1419 1418 1418 1417 1416 1416 1415 1414 1414 1413 1413 1413 1413 1412 1412 1411 1411 1411 1411 1411 1411 1412 1412 1412 1412 1413 1413 1413 1413 1413
1420 1420 1420 1420 1420 1419 1419 1419 1419 1418 1418 1418 1417 1417 1417 1416 1415 1415 1414 1414 1413 1413 1412 1412 1411 1411 1411 1411 1410 1410 1410 1410 1410 1410 1410 1410 1411 1411 1411 1411 1412 1412 1412 1412
1417 1417 1417 1417 1417 1417 1417 1417 1416 1416 1416 1416 1415 1415 1414 1414 1413 1413 1412 1412 1411 1411 1410 1410 1410 1410 1409 1409 1409 1409 1409 1409 1409 1409 1409 1409 1410 1410 1410 1410 1411 1411 1411 1411